Change the Weather History Date:

Thursday, July 25, 2013

  Actual Average Record
Temperature  
Mean Temperature 80 °F 82 °F  
Max Temperature 87 °F 90 °F 98 °F (1983)
Min Temperature 73 °F 74 °F 68 °F (1975)
Degree Days  
Heating Degree Days 0 0  
Month to date heating degree days 0 0  
Since 1 June heating degree days 0 0  
Since 1 July heating degree days 0 0  
Cooling Degree Days 15 17  
Month to date cooling degree days 384 416  
Year to date cooling degree days 1796 1678  
Since 1 June cooling degree days 889 872  
Growing Degree Days 30 (Base 50)    
Moisture  
Dew Point 74 °F    
Average Humidity 82    
Maximum Humidity 94    
Minimum Humidity 70    
Precipitation  
Precipitation 0.67 in 0.18 in 2.44 in (1967)
Month to date precipitation 4.33 4.56  
Year to date precipitation 25.04 26.60  
Sea Level Pressure  
Sea Level Pressure 29.97 in    
Wind  
Wind Speed 8 mph (WSW)    
Max Wind Speed 24 mph    
Max Gust Speed 31 mph    
Visibility 8 miles    
Events Fog , Rain , Thunderstorm    
T = Trace of Precipitation, MM = Missing Value Source: NWS Daily Summary

Daily Weather History Graph

Daily Weather History Graph

Search for Another Location

Airport or City:

Trip Planner

Search our weather history database for the weather conditions in past years. The results will help you decide how hot, cold, wet, or windy it might be!

Date:

Astronomy

Jul. 25, 2013 Rise Set
Actual Time 6:41 AM EDT 8:14 PM EDT
Civil Twilight 6:15 AM EDT 8:40 PM EDT
Nautical Twilight 5:44 AM EDT 9:11 PM EDT
Astronomical Twilight 5:12 AM EDT 9:42 PM EDT
Moon 10:20 PM EDT (7/25) 9:45 AM EDT (7/25)
Length of Visible Light 14h 24m
Length of Day
13h 33m
Waning Gibbous, 88% of the Moon is Illuminated
Jul 25
Waning Gibbous
Jul 29
Last Quarter
Aug 6
New
Aug 14
First Quarter
Aug 20
Full

Hourly Weather History & Observations

Time (EDT) Temp. Heat Index Dew Point Humidity Pressure Visibility Wind Dir Wind Speed Gust Speed Precip Events Conditions
12:53 AM 77.0 °F - 73.9 °F 90% 29.95 in 10.0 mi SW 5.8 mph - N/A   Clear
1:53 AM 75.9 °F - 73.9 °F 94% 29.93 in 10.0 mi SW 5.8 mph - N/A   Clear
2:53 AM 75.9 °F - 73.9 °F 94% 29.92 in 10.0 mi SSW 6.9 mph - N/A   Clear
3:53 AM 75.0 °F - 73.9 °F 96% 29.91 in 10.0 mi SW 4.6 mph - N/A   Clear
4:53 AM 75.9 °F - 73.9 °F 94% 29.91 in 10.0 mi SW 8.1 mph - N/A   Clear
5:53 AM 75.0 °F - 73.9 °F 96% 29.91 in 10.0 mi SW 9.2 mph - N/A   Clear
6:53 AM 75.9 °F - 73.9 °F 94% 29.93 in 9.0 mi WSW 8.1 mph - N/A   Partly Cloudy
7:53 AM 77.0 °F - 75.0 °F 94% 29.95 in 9.0 mi WSW 8.1 mph - N/A   Mostly Cloudy
8:53 AM 80.1 °F 85.4 °F 75.9 °F 87% 29.96 in 10.0 mi SW 9.2 mph - N/A   Clear
9:53 AM 82.0 °F 89.4 °F 75.9 °F 82% 29.98 in 6.0 mi West 9.2 mph - N/A   Haze
10:05 AM 78.8 °F - 73.4 °F 83% 30.01 in 1.5 mi WNW 21.9 mph 31.1 mph 0.00 in Rain Rain
10:07 AM 75.2 °F - 73.4 °F 94% 30.01 in 0.8 mi NW 17.3 mph 31.1 mph 0.04 in Rain Rain
10:13 AM 73.4 °F - 73.4 °F 100% 29.99 in 0.2 mi NW 8.1 mph - 0.44 in Fog , Rain Rain
10:19 AM 73.4 °F - 73.4 °F 100% 29.99 in 0.5 mi WNW 4.6 mph - 0.67 in Fog , Rain Light Rain
10:21 AM 73.4 °F - 73.4 °F 100% 29.99 in 10.0 mi Calm Calm - 0.67 in Rain , Thunderstorm Light Thunderstorms and Rain
10:42 AM 75.2 °F - 73.4 °F 94% 30.00 in 10.0 mi West 3.5 mph - 0.67 in   Overcast
10:53 AM 75.0 °F - 73.9 °F 96% 30.00 in 10.0 mi SW 3.5 mph - 0.67 in   Mostly Cloudy
11:53 AM 77.0 °F - 75.0 °F 94% 30.01 in 8.0 mi West 9.2 mph - N/A   Clear
12:53 PM 78.1 °F - 75.0 °F 90% 30.00 in 10.0 mi West 11.5 mph - 0.00 in   Overcast
1:53 PM 80.1 °F 84.5 °F 73.9 °F 81% 29.99 in 10.0 mi WSW 11.5 mph - N/A   Partly Cloudy
2:53 PM 82.0 °F 87.9 °F 73.9 °F 76% 29.98 in 7.0 mi West 10.4 mph - N/A   Mostly Cloudy
3:53 PM 84.9 °F 93.3 °F 75.0 °F 72% 29.97 in 8.0 mi West 15.0 mph 23.0 mph N/A   Clear
4:53 PM 86.0 °F 96.0 °F 75.9 °F 72% 29.96 in 8.0 mi WSW 11.5 mph - N/A   Partly Cloudy
5:53 PM 84.9 °F 93.3 °F 75.0 °F 72% 29.96 in 10.0 mi West 13.8 mph 17.3 mph N/A   Haze
6:53 PM 84.0 °F 93.7 °F 77.0 °F 79% 29.96 in 10.0 mi West 6.9 mph - N/A   Partly Cloudy
7:53 PM 82.9 °F 90.2 °F 75.0 °F 77% 29.97 in 8.0 mi WSW 8.1 mph - N/A   Clear
8:53 PM 81.0 °F 85.2 °F 72.0 °F 74% 29.98 in 9.0 mi WSW 6.9 mph - N/A   Clear
9:53 PM 80.1 °F 83.8 °F 72.0 °F 76% 29.99 in 7.0 mi West 6.9 mph - N/A   Clear
10:53 PM 78.1 °F - 72.0 °F 81% 30.00 in 10.0 mi SW 3.5 mph - N/A   Clear
11:53 PM 77.0 °F - 73.0 °F 88% 30.01 in 10.0 mi SSW 4.6 mph - N/A   Clear